Content
SEND FEEDBACK

Daily
Averages
Monthly
Summary
United States of America

MANGILAO, GUAM


Home > North America > United States > Guam
Elevation: 60 feet     Latitude: 13 27N     Longitude: 144 49E

WEATHER
 
SELECT A DAY
Number of Records: 351,545;   Date Range: 1/1/95 - 10/19/14
 
SHARE

PRINT THIS DATA

[ ← Previous Day ]
WEATHER ALMANAC - JUNE 11, 2013
[ Next Day → ]
[ °C ]   °F
Weather ElementAverageHighLow
Temperature82.6 °F88 °F (1:55 pm)80.4 °F (4:55 am)
Dewpoint76 °F78.8 °F (4:29 pm)74.7 °F (1:55 am)
Humidity80.8 %89 % (3:34 pm)67 % (1:55 pm)
Barometer29.79 in29.83 in (10:55 pm)29.76 in (2:55 pm)
Wind Speed16 mph20.7 mph (12:55 pm)
Wind Gust28.8 mph (3:22 pm)
Weather ElementAverage
Visibility9.3 mi
Wind DirectionE (85.7 °)

Weather ElementTotal
Precipitation0.07 in
Cooling Degree Days19.2 (Base 65)
Growing Degree Days34.2 (Base 50)
Averaged from 79 records on June 11, 2013
WEATHER CONDITIONS BREAKOUT
WIND DIRECTION BREAKOUT
WEATHER BY HOUR - JUNE 11, 2013
[ °C ]   °F
Local TimeTemperatureDewpointHumidityBarometerVisibilityWind DirectionWind SpeedGust SpeedPrecipitationEventsConditions
12:55 AM81.0 °F75.0 °F82 %29.79 in10.0 miEast (80°)12.7 mphMostly Cloudy
1:55 AM80.8 °F74.7 °F82 %29.79 in10.0 miEast (80°)15.0 mphScattered Clouds
1:58 AM80.6 °F75.2 °F84 %29.79 in10.0 miEast (80°)12.7 mphMostly Cloudy
1:59 AM80.6 °F75.2 °F84 %29.79 in10.0 miEast (90°)12.7 mphMostly Cloudy
2:01 AM80.6 °F75.2 °F84 %29.78 in10.0 miEast (90°)13.8 mphMostly Cloudy
2:16 AM80.6 °F75.2 °F84 %29.78 in10.0 miEast (90°)11.5 mphScattered Clouds
2:18 AM80.6 °F75.2 °F84 %29.78 in10.0 miEast (90°)12.7 mphMostly Cloudy
2:55 AM80.8 °F75.7 °F85 %29.78 in10.0 miEast (100°)13.8 mphMostly Cloudy
3:04 AM80.6 °F75.2 °F84 %29.77 in10.0 miEast (90°)12.7 mphScattered Clouds
3:42 AM80.6 °F75.2 °F84 %29.78 in10.0 miEast (100°)11.5 mphMostly Cloudy
3:55 AM80.6 °F76.1 °F86 %29.78 in10.0 miEast (90°)16.1 mphOvercast
4:09 AM80.6 °F75.2 °F84 %29.78 in10.0 miEast (80°)16.1 mphMostly Cloudy
4:11 AM80.6 °F75.2 °F84 %29.78 in10.0 miEast (80°)16.1 mphMostly Cloudy
4:26 AM80.6 °F75.2 °F84 %29.78 in10.0 miEast (90°)13.8 mphScattered Clouds
4:55 AM80.4 °F75.7 °F86 %29.78 in10.0 miEast (80°)17.3 mphMostly Cloudy
4:59 AM80.6 °F75.2 °F84 %29.78 in10.0 miEast (90°)15.0 mphMostly Cloudy
5:21 AM80.6 °F75.2 °F84 %29.79 in10.0 miEast (80°)16.1 mph23.0 mphScattered Clouds
5:23 AM80.6 °F75.2 °F84 %29.79 in10.0 miEast (80°)15.0 mph23.0 mphMostly Cloudy
5:55 AM80.6 °F75.6 °F85 %29.79 in10.0 miEast (80°)16.1 mphMostly Cloudy
6:55 AM81.9 °F75.7 °F82 %29.80 in10.0 miEast (90°)15.0 mphPartly Cloudy
7:52 AM82.4 °F77.0 °F84 %29.80 in10.0 miEast (90°)15.0 mphMostly Cloudy
7:55 AM82.6 °F76.6 °F82 %29.80 in10.0 miEast (80°)15.0 mphMostly Cloudy
8:09 AM84.2 °F75.2 °F74 %29.81 in10.0 miEast (80°)15.0 mph23.0 mphScattered Clouds
8:55 AM84.4 °F75.7 °F75 %29.81 in10.0 miEast (90°)15.0 mphScattered Clouds
9:07 AM84.2 °F77.0 °F79 %29.81 in10.0 miEast (90°)19.6 mph24.2 mphMostly Cloudy
9:38 AM86.0 °F77.0 °F74 %29.81 in10.0 miEast (90°)17.3 mphScattered Clouds
9:55 AM85.5 °F75.9 °F73 %29.81 in10.0 miEast (80°)18.4 mph24.2 mphScattered Clouds
10:02 AM86.0 °F75.2 °F70 %29.81 in10.0 miEast (100°)16.1 mphMostly Cloudy
10:07 AM86.0 °F75.2 °F70 %29.81 in10.0 miEast (90°)17.3 mphMostly Cloudy
10:08 AM86.0 °F75.2 °F70 %29.81 in10.0 miEast (90°)18.4 mphMostly Cloudy
10:55 AM84.7 °F76.5 °F76 %29.81 in10.0 miEast (100°)13.8 mphOvercast
11:05 AM86.0 °F77.0 °F74 %29.80 in10.0 miEast (90°)18.4 mph23.0 mphScattered Clouds
11:08 AM86.0 °F77.0 °F74 %29.80 in10.0 miEast (100°)15.0 mphMostly Cloudy
11:12 AM86.0 °F77.0 °F74 %29.80 in10.0 miEast (80°)19.6 mphScattered Clouds
11:25 AM86.0 °F77.0 °F74 %29.80 in10.0 miEast (90°)15.0 mphMostly Cloudy
11:55 AM87.4 °F76.6 °F70 %29.79 in10.0 miEast (100°)18.4 mphMostly Cloudy
12:00 PM87.8 °F77.0 °F70 %29.79 in10.0 miEast (90°)17.3 mphScattered Clouds
12:55 PM87.8 °F76.3 °F69 %29.78 in10.0 miEast (90°)20.7 mphMostly Cloudy
1:17 PM86.0 °F77.0 °F74 %29.78 in10.0 miEast (80°)18.4 mph21.9 mphMostly Cloudy
1:19 PM86.0 °F77.0 °F74 %29.78 in10.0 miEast (90°)18.4 mph21.9 mphScattered Clouds
1:55 PM88.0 °F75.7 °F67 %29.78 in10.0 miEast (90°)17.3 mphPartly Cloudy
2:55 PM87.8 °F75.7 °F67 %29.76 in10.0 miEast (80°)17.3 mph23.0 mphClear
3:22 PM86.0 °F77.0 °F74 %29.77 in7.0 miEast (80°)20.7 mph28.8 mphRainLight Rain
3:32 PM82.4 °F77.0 °F84 %29.77 in7.0 miEast (80°)13.8 mph21.9 mphRainLight Rain
3:34 PM80.6 °F77.0 °F89 %29.77 in10.0 miEast (80°)12.7 mph21.9 mphMostly Cloudy
3:55 PM83.1 °F77.9 °F84 %29.77 in10.0 miEast (80°)13.8 mph0.01 inScattered Clouds
4:27 PM86.0 °F77.0 °F74 %29.77 in8.0 miEast (90°)13.8 mphLight Drizzle
4:29 PM86.0 °F78.8 °F79 %29.76 in2.5 miEast (100°)13.8 mphRainRain
4:31 PM84.2 °F78.8 °F84 %29.77 in2.0 miEast (80°)16.1 mph26.5 mphRainRain
4:36 PM80.6 °F75.2 °F84 %29.77 in1.5 miEast (90°)19.6 mph26.5 mphRainLight Rain
4:39 PM80.6 °F75.2 °F84 %29.77 in2.0 miEast (80°)17.3 mph26.5 mphRainRain
4:40 PM80.6 °F75.2 °F84 %29.77 in2.5 miEast (90°)16.1 mph26.5 mphRainRain
4:42 PM80.6 °F75.2 °F84 %29.77 in3.0 miEast (90°)16.1 mphRainLight Rain
4:47 PM80.6 °F75.2 °F84 %29.77 in8.0 miEast (90°)17.3 mph23.0 mphScattered Clouds
4:55 PM81.9 °F76.1 °F83 %29.78 in10.0 miEast (80°)17.3 mph0.06 inMostly Cloudy
5:00 PM82.4 °F77.0 °F84 %29.78 in10.0 miENE (70°)16.1 mphMostly Cloudy
5:10 PM80.6 °F77.0 °F89 %29.78 in10.0 miENE (70°)16.1 mphMostly Cloudy
5:41 PM82.4 °F77.0 °F84 %29.78 in10.0 miEast (80°)16.1 mphMostly Cloudy
5:55 PM81.9 °F76.3 °F83 %29.78 in10.0 miENE (70°)16.1 mphMostly Cloudy
5:57 PM82.4 °F75.2 °F79 %29.78 in10.0 miEast (80°)15.0 mphMostly Cloudy
6:01 PM82.4 °F75.2 °F79 %29.78 in10.0 miENE (70°)19.6 mph23.0 mphMostly Cloudy
6:40 PM82.4 °F77.0 °F84 %29.79 in10.0 miEast (80°)15.0 mphScattered Clouds
6:41 PM82.4 °F77.0 °F84 %29.79 in10.0 miEast (80°)13.8 mphMostly Cloudy
6:55 PM81.5 °F76.1 °F84 %29.79 in10.0 miEast (90°)16.1 mphMostly Cloudy
7:15 PM80.6 °F77.0 °F89 %29.79 in10.0 miEast (80°)17.3 mphScattered Clouds
7:23 PM80.6 °F75.2 °F84 %29.80 in10.0 miEast (80°)17.3 mphMostly Cloudy
7:26 PM80.6 °F75.2 °F84 %29.80 in10.0 miEast (90°)17.3 mphScattered Clouds
7:31 PM80.6 °F75.2 °F84 %29.80 in10.0 miEast (80°)16.1 mphMostly Cloudy
7:32 PM80.6 °F75.2 °F84 %29.80 in10.0 miEast (80°)17.3 mphScattered Clouds
7:55 PM81.3 °F74.8 °F81 %29.81 in10.0 miEast (90°)19.6 mphPartly Cloudy
8:55 PM81.3 °F76.1 °F84 %29.81 in10.0 miEast (80°)18.4 mphScattered Clouds
8:56 PM80.6 °F77.0 °F89 %29.81 in10.0 miEast (80°)17.3 mphMostly Cloudy
9:43 PM80.6 °F75.2 °F84 %29.81 in10.0 miEast (80°)17.3 mphScattered Clouds
9:55 PM81.3 °F75.6 °F83 %29.82 in10.0 miEast (90°)16.1 mphPartly Cloudy
10:55 PM81.3 °F75.4 °F82 %29.83 in10.0 miEast (90°)16.1 mph21.9 mphMostly Cloudy
11:14 PM80.6 °F75.2 °F84 %29.83 in10.0 miEast (90°)16.1 mphScattered Clouds
11:48 PM80.6 °F75.2 °F84 %29.82 in10.0 miEast (90°)13.8 mphMostly Cloudy
11:55 PM81.0 °F75.9 °F85 %29.82 in10.0 miEast (90°)16.1 mphMostly Cloudy
11:56 PM80.6 °F75.2 °F84 %29.82 in10.0 miEast (90°)13.8 mphScattered Clouds
Hourly data recorded from PGUA, located miles away from Mangilao, Guam







STORIES FROM OUR PARTNERS